GORIZONT 1 1 11158U 78118A 25020.93937423 -.00000003 00000-0 00000-0 0 9994 2 11158 11.7184 170.1128 3180625 332.8530 13.3410 1.00296331117803 GORIZONT 2 1 11440U 79062A 25021.80882854 -.00000012 00000-0 00000-0 0 9991 2 11440 6.9982 291.1595 0006099 339.8091 210.5803 1.00303970132890 GORIZONT 3 1 11648U 79105A 25021.80951917 -.00000010 00000-0 00000-0 0 9994 2 11648 7.1785 292.8561 0011771 253.3471 294.2591 1.00346004117352 GORIZONT 4 1 11841U 80049A 25021.04979823 -.00000126 00000-0 00000-0 0 9998 2 11841 8.3952 299.6582 0003646 345.4609 332.1483 0.98629590228469 GORIZONT 5 1 13092U 82020A 25021.43900465 .00000013 00000-0 00000-0 0 9992 2 13092 9.4921 305.3052 0033201 243.2353 312.7176 0.98531287116559 GORIZONT 6 1 13624U 82103A 25021.24065640 -.00000265 00000-0 00000-0 0 9991 2 13624 8.4553 305.6747 0002227 325.9491 238.6659 1.00199927115814 GORIZONT 7 1 14160U 83066A 25021.17210767 -.00000145 00000-0 00000-0 0 9997 2 14160 10.3209 315.9101 0012354 333.3261 210.7184 0.98348689149715 GORIZONT 8 1 14532U 83118A 25021.17149951 -.00000131 00000-0 00000-0 0 9999 2 14532 10.5482 317.9199 0027233 173.8916 4.7294 0.98270445115471 GORIZONT 9 1 14940U 84041A 25021.89632544 -.00000002 00000-0 00000-0 0 9999 2 14940 9.7169 315.7215 0005515 269.1951 287.9679 1.00223889116813 GORIZONT 10 1 15144U 84078A 25021.17375840 -.00000226 00000-0 00000-0 0 9998 2 15144 9.8427 316.7534 0002564 314.4363 237.6930 1.00253730149440 GORIZONT 11 1 15484U 85007A 25021.04563066 .00000016 00000-0 00000-0 0 9999 2 15484 10.0782 318.8887 0002749 254.0277 286.3985 1.00241584147495 GORIZONT 12 1 16769U 86044A 25021.89840903 .00000077 00000-0 00000-0 0 9996 2 16769 10.8650 324.4490 0004264 296.9972 242.1565 1.00205968142134 GORIZONT 13 1 17083U 86090A 25021.87463472 -.00000054 00000-0 00000-0 0 9993 2 17083 12.9442 332.0280 0015354 347.9626 13.7373 0.96725555113706 GORIZONT 14 1 17969U 87040A 25021.90396362 -.00000032 00000-0 00000-0 0 9995 2 17969 11.5980 323.0395 0029193 201.9112 337.3798 0.97657896114860 GORIZONT 15 1 19017U 88028A 25018.54354538 -.00000094 00000-0 00000-0 0 9991 2 19017 13.3495 334.5604 0034656 184.0685 188.1700 0.97828591114477 GORIZONT 16 1 19397U 88071A 25021.89632544 .00000045 00000-0 00000-0 0 9993 2 19397 12.1757 333.2262 0011206 74.7898 102.5377 0.99963611133127 GORIZONT 17 1 19765U 89004A 25021.73951718 -.00000157 00000-0 00000-0 0 9994 2 19765 12.8392 336.7117 0020150 160.8182 185.6930 0.99065818130504 GORIZONT 18 1 20107U 89052A 25021.31146403 -.00000217 00000-0 00000-0 0 9997 2 20107 12.9346 337.9140 0035742 334.8801 220.2283 0.99400905129324 GORIZONT 19 1 20263U 89081A 25021.47697146 .00000075 00000-0 00000-0 0 9995 2 20263 12.6402 336.9919 0005576 256.8398 112.4636 1.00340421 42211 GORIZONT 20 1 20659U 90054A 25021.34169846 -.00000236 00000-0 00000-0 0 9993 2 20659 13.1815 339.6909 0006847 219.1218 136.4198 1.00239074126558 GORIZONT 21 1 20923U 90094A 25021.34378361 -.00000329 00000-0 00000-0 0 9998 2 20923 13.2254 340.4292 0007381 248.0823 118.1509 1.00379789125327 GORIZONT 22 1 20953U 90102A 25021.11198637 .00000088 00000-0 00000-0 0 9993 2 20953 13.2007 340.8720 0003102 331.0659 223.5188 1.00318467125233 GORIZONT 23 1 21533U 91046A 25021.16368649 -.00000234 00000-0 00000-0 0 9997 2 21533 14.1192 345.1140 0007039 309.1969 226.5646 0.98911086 41624 GORIZONT 24 1 21759U 91074A 25020.88590531 -.00000068 00000-0 00000-0 0 9998 2 21759 14.3527 347.1238 0021480 252.0134 233.1081 0.98443531119914 GORIZONT 25 1 21922U 92017A 25021.27653807 -.00000348 00000-0 00000-0 0 9999 2 21922 13.8724 346.2802 0025210 105.0798 252.6825 0.99852921119824 GORIZONT 26 1 22041U 92043A 25021.57643876 .00000062 00000-0 00000-0 0 9991 2 22041 14.1254 348.4155 0035029 259.4792 299.6182 0.99242571118393 GORIZONT 27 1 22245U 92082A 25021.71267109 -.00000119 00000-0 00000-0 0 9991 2 22245 14.0269 347.7508 0010824 13.6709 177.5156 1.00228782121998 GORIZONT 28 1 22880U 93069A 25021.47931723 .00000072 00000-0 00000-0 0 9992 2 22880 14.3287 351.7676 0032094 161.1503 206.2228 0.99647047114034 GORIZONT 29 1 22907U 93072A 25021.31389669 -.00000289 00000-0 00000-0 0 9996 2 22907 14.2172 351.1217 0010202 345.5574 208.9494 1.00144169114049 GORIZONT 30 1 23108U 94030A 25021.17844995 -.00000103 00000-0 00000-0 0 9992 2 23108 14.2682 352.0052 0004797 258.9624 282.9346 1.00264484112321 GORIZONT 31 1 23775U 96005A 25021.67619074 -.00000349 00000-0 00000-0 0 9991 2 23775 14.4485 358.3802 0021739 230.6650 257.2164 0.99892768105949 GORIZONT 32 1 23880U 96034A 25021.31398358 -.00000290 00000-0 00000-0 0 9995 2 23880 14.4179 358.8232 0007317 349.2663 197.9677 1.00180941104905 GORIZONT 33 1 26372U 00029A 25021.35090780 -.00000293 00000-0 00000-0 0 9998 2 26372 13.6167 10.4963 0002832 227.7383 147.1088 1.00310759 90303